Regional Weather Roundup
Issued by NWS

Home | Current Version | Previous Version | Graphics & Text | Print | Product List | Glossary On
Versions: 1 2 3 4 5 6 7 8 9 10 11 12 13 14 15 16 17 18 19 20 21 22 23 24 25 26 27 28 29 30 31 32 33 34 35 36 37 38 39 40 41 42 43 44 45 46 47 48 49 50
000
ASUS45 KPSR 012010
RWRAZ

ARIZONA REGIONAL HOURLY WEATHER ROUNDUP
NATIONAL WEATHER SERVICE PHOENIX AZ
100 PM MST WED OCT 01 2014

NOTE: FAIR INDICATES FEW OR NO CLOUDS BELOW 12,000 FEET WITH NO
SIGNIFICANT WEATHER AND/OR OBSTRUCTIONS TO VISIBILITY.

AZZ001>003-036-012100-
NORTHWEST ARIZONA

CITY           SKY/WX    TMP DP  RH WIND       PRES   REMARKS
BULLHEAD CITY  SUNNY     90  41  18 N21G31    29.80S
KINGMAN        SUNNY     78  38  23 N13G20    29.95F
$$

AZZ004>008-015-016-018-012100-
NORTH CENTRAL ARIZONA

CITY           SKY/WX    TMP DP  RH WIND       PRES   REMARKS
GRAND CANYON   PTSUNNY   64  37  36 N6        30.07F
PRESCOTT       MOSUNNY   73  32  22 W12       29.99F
FLAGSTAFF      PTSUNNY   62  32  32 MISG      30.08F
PAYSON         SUNNY     70  37  30 VRB6G15   30.01F
PAGE           MOSUNNY   71  35  26 MISG      29.94F
$$

AZZ009>014-017-012100-
NORTHEAST ARIZONA

CITY           SKY/WX    TMP DP  RH WIND       PRES   REMARKS
WINSLOW        MOSUNNY   75  35  23 VRB5      29.95F
SAINT JOHNS    SUNNY     71  33  24 W10G20    29.98F
SHOW LOW       SUNNY     66  36  32 SW9       30.05F
$$

AZZ023-012100-
GREATER PHOENIX AREA

CITY           SKY/WX    TMP DP  RH WIND       PRES   REMARKS
PHOENIX        MOSUNNY   87  40  19 VRB3      29.78F
BUCKEYE          N/A     84  43  23 E5        29.80F
GLENDALE       MOSUNNY   86  45  23 E3        29.81F
LUKE AFB       SUNNY     85  47  26 SE5       29.78F
DEER VALLEY    SUNNY     84  37  18 CALM      29.80F
SCOTTSDALE     SUNNY     85  43  22 S5        29.82F
MESA-FALCON    SUNNY     84  37  18 SW5       29.80F
MESA-GATEWAY   SUNNY     84  43  23 W5        29.83F
CHANDLER       SUNNY     86  45  23 VRB5      29.80F
$$

AZZ027-028-012100-
SOUTHWEST MARICOPA COUNTY AND PINAL COUNTY

CITY           SKY/WX    TMP DP  RH WIND       PRES   REMARKS
CASA GRANDE    SUNNY     86  41  20 CALM      29.80F
GILA BEND      CLEAR     88  43  20 VRB2      29.84S
$$

AZZ503-504-507>509-012100-
SOUTHEAST ARIZONA

CITY           SKY/WX    TMP DP  RH WIND       PRES   REMARKS
TUCSON         SUNNY     85  34  16 CALM      29.87F
DAVIS-MONTHAN  SUNNY     83  35  17 VRB1      29.85F
RYAN FIELD       N/A     90  43  19 S9        29.85F
NOGALES        SUNNY     83  32  16 SW10      29.94F
SIERRA VISTA   SUNNY     81  27  13 W9G20     29.97F
DOUGLAS        SUNNY     82  32  16 W15       29.94F
SAFFORD        SUNNY     82  35  18 SW9       29.86F
$$

AZZ020-021-025-026-031-012100-
SOUTHWEST ARIZONA

CITY           SKY/WX    TMP DP  RH WIND       PRES   REMARKS
YUMA           MOSUNNY   91  54  28 E6        29.74F
$$

CAZ031-033-041-043-047-048-061-012100-
SOUTHERN CALIFORNIA

CITY           SKY/WX    TMP DP  RH WIND       PRES   REMARKS
DOWNTOWN L.A.  SUNNY     82  61  48 VRB3      29.78F
L.A. AIRPORT   SUNNY     74  62  66 W9        29.80F
SAN DIEGO      SUNNY     73  60  63 SW9       29.81F
BURBANK        SUNNY     81  55  40 VRB6      29.79F
ONTARIO        SUNNY     84  51  31 W9        29.80F
RIVERSIDE      SUNNY     82  50  32 CALM      29.80F
PALM SPRINGS   SUNNY     94  37  13 VRB7      29.77S
EL CENTRO NAS  SUNNY     90  42  18 VRB7      29.73F
IMPERIAL       SUNNY     90  47  22 CALM      29.72F
BLYTHE         SUNNY     90  46  21 N6        29.76F
NEEDLES        SUNNY     93  38  14 N14G22    29.80F
$$

NVZ020-UTZ003-012100-
SOUTHERN NEVADA-UTAH

CITY           SKY/WX    TMP DP  RH WIND       PRES   REMARKS
LAS VEGAS      MOSUNNY   82  31  15 N15G25    29.88F
SALT LAKE CITY MOSUNNY   56  35  45 W10       30.10S
$$

NMZ009-TXZ055-012100-
NEW MEXICO-WEST TEXAS

CITY           SKY/WX    TMP DP  RH WIND       PRES   REMARKS
ALBUQUERQUE    MOSUNNY   74  32  21 SW9G20    29.93F
EL PASO        SUNNY     83  31  15 SW16G25   29.90F
$$


........................KEY........................
SKY/WX - SKY CONDITION/WEATHER
TMP    - TEMPERATURE IN FAHRENHEIT
DP     - DEW POINT IN FAHRENHEIT
RH     - RELATIVE HUMIDITY IN PERCENT
WIND   - DIRECTION AND SPEED IN MILES PER HOUR (MPH)
VRB    - VARIABLE WIND DIRECTION
PRES   - MEAN SEA LEVEL PRESSURE IN INCHES OF MERCURY
         F - FALLING PRESSURE   R - RISING PRESSURE
         S - STEADY PRESSURE
VSB    - VISIBILITY IN MILES
HX     - HEAT INDEX IN FAHRENHEIT
WCI    - WIND CHILL INDEX IN FAHRENHEIT
TC     - TEMPERATURE IN CELSIUS WHICH IS ALSO KNOWN AS
         TEMPERATURE IN CENTIGRADE
AFB    - AIR FORCE BASE
         LUKE AFB IS LUKE AIR FORCE BASE
         DAVIS-MONTHAN IS DAVIS-MONTHAN AIR FORCE BASE
NAS    - NAVAL AIR STATION
         EL CENTRO NAS IS EL CENTRO NAVAL AIR STATION
N/A    - NOT AVAILABLE



USA.gov is the U.S. government's official web portal to all federal, state and local government web resources and services.